GFSNE_925_temp_159.txt.gz
Temp
-5 -5 -4 -4 -3 -3 -2 -1 1 4 6 4 5 4 3 2 1 1 1 2 4 3 4 5 6 7 10 11 12 13 13 13 13 12 11 13 13 13
-5 -5 -4 -4 -4 -3 -2 -1 -0 2 4 3 1 2 2 2 1 0 0 0 1 1 1 1 1 1 3 5 6 7 7 8 10 11 13 11 12 12
-6 -6 -5 -5 -5 -4 -3 -2 -1 -0 4 0 0 0 0 1 0 -0 -0 -1 -1 -1 -1 0 1 0 -0 -0 0 2 4 6 5 8 8 11 10 11
-7 -6 -6 -5 -5 -5 -4 -4 -3 -2 1 0 -1 -1 -1 -1 -1 -1 -1 -1 -2 -2 -2 -2 -2 -2 -2 -2 -1 -0 2 3 3 3 4 5 6 4
-7 -7 -7 -6 -5 -6 -6 -5 -5 -4 -2 -2 -3 -3 -3 -2 -2 -3 -3 -3 -3 -3 -3 -3 -3 -3 -3 -3 -3 -3 -2 -2 -1 1 2 2 2 3
-8 -8 -8 -7 -7 -6 -6 -7 -6 -5 -5 -5 -5 -5 -5 -4 -3 -3 -5 -5 -5 -4 -4 -5 -5 -5 -5 -5 -4 -4 -3 -3 -3 -2 -1 0 0 0
-8 -8 -8 -8 -8 -7 -7 -8 -7 -7 -6 -6 -6 -7 -7 -6 -6 -5 -4 -5 -6 -6 -6 -5 -6 -6 -6 -6 -6 -6 -5 -5 -4 -4 -4 -4 -4 -4
-8 -8 -8 -9 -9 -10 -9 -9 -9 -8 -8 -8 -8 -7 -8 -8 -7 -7 -6 -4 -4 -6 -7 -7 -7 -8 -8 -7 -7 -7 -7 -7 -6 -6 -5 -5 -4 -5
-10 -9 -9 -9 -9 -9 -11 -11 -10 -10 -10 -9 -9 -10 -9 -10 -7 -5 -7 -7 -8 -9 -6 -7 -6 -7 -8 -9 -9 -9 -9 -8 -8 -8 -7 -7 -6 -4
-10 -10 -10 -10 -11 -11 -11 -12 -13 -11 -11 -11 -11 -11 -11 -11 -9 -7 -6 -7 -8 -10 -9 -5 -9 -8 -8 -9 -10 -10 -10 -10 -10 -9 -9 -8 -8 -7
-9 -10 -10 -11 -11 -10 -10 -11 -12 -13 -13 -13 -13 -13 -12 -10 -9 -8 -8 -5 -6 -10 -12 -9 -10 -9 -9 -9 -10 -11 -11 -10 -10 -11 -10 -10 -9 -8
-9 -9 -10 -10 -11 -11 -12 -12 -13 -14 -13 -12 -12 -12 -12 -12 -11 -12 -11 -10 -9 -9 -13 -10 -11 -11 -6 -10 -10 -12 -11 -11 -11 -11 -11 -11 -10 -9
-10 -9 -10 -11 -11 -12 -13 -13 -13 -14 -13 -13 -13 -13 -13 -13 -14 -14 -14 -13 -12 -13 -14 -12 -12 -11 -10 -10 -10 -12 -12 -12 -12 -12 -11 -11 -11 -11
-11 -11 -11 -12 -12 -13 -13 -13 -11 -13 -13 -13 -13 -13 -13 -13 -14 -14 -14 -15 -15 -15 -15 -14 -13 -13 -11 -10 -10 -12 -12 -12 -12 -12 -12 -11 -11 -11
-12 -13 -13 -13 -13 -14 -14 -13 -13 -14 -13 -13 -13 -13 -14 -14 -13 -13 -14 -14 -14 -15 -15 -15 -14 -14 -12 -12 -12 -12 -13 -12 -13 -12 -12 -11 -11 -11
-12 -12 -13 -13 -13 -14 -14 -14 -15 -15 -15 -14 -14 -14 -14 -13 -13 -13 -13 -13 -12 -13 -14 -15 -15 -14 -13 -13 -12 -12 -13 -13 -13 -13 -12 -11 -11 -11
-12 -13 -13 -13 -13 -14 -14 -15 -15 -15 -15 -15 -15 -15 -14 -13 -14 -14 -13 -13 -13 -13 -13 -14 -14 -14 -14 -14 -12 -13 -13 -13 -13 -13 -13 -12 -11 -11
-13 -14 -15 -15 -14 -14 -15 -15 -16 -16 -16 -16 -16 -16 -15 -14 -14 -14 -14 -14 -13 -13 -14 -14 -14 -13 -12 -13 -14 -14 -14 -14 -14 -13 -13 -12 -12 -11
-13 -14 -15 -15 -15 -15 -16 -16 -17 -18 -18 -17 -17 -17 -17 -16 -15 -15 -15 -14 -14 -14 -14 -14 -14 -14 -13 -12 -14 -16 -16 -15 -14 -14 -13 -13 -12 -12
-14 -15 -15 -16 -16 -16 -17 -17 -18 -18 -19 -18 -19 -19 -19 -17 -16 -16 -15 -16 -15 -14 -14 -15 -15 -16 -15 -15 -15 -15 -16 -16 -16 -15 -14 -14 -13 -13
-14 -15 -16 -16 -17 -17 -18 -19 -19 -20 -20 -20 -20 -20 -20 -18 -17 -17 -17 -17 -16 -15 -15 -15 -16 -17 -16 -16 -15 -15 -16 -16 -17 -16 -16 -15 -14 -13
-15 -16 -17 -17 -18 -18 -19 -20 -19 -20 -20 -20 -20 -20 -20 -19 -18 -18 -18 -17 -16 -16 -16 -16 -16 -16 -16 -16 -16 -16 -16 -17 -16 -16 -16 -17 -16 -15
-16 -16 -18 -18 -18 -19 -19 -20 -20 -20 -21 -21 -21 -21 -22 -20 -20 -19 -19 -18 -18 -17 -17 -16 -16 -16 -16 -16 -17 -16 -16 -16 -16 -16 -15 -16 -17 -17

GFSNE_925_temp_162.txt.gz
Temp
-3 -3 -3 -2 -2 -2 -2 -1 -0 2 3 3 3 3 2 1 1 1 0 0 2 2 2 3 4 5 7 10 12 12 12 13 11 12 13 14 13 12
-3 -4 -3 -3 -2 -2 -2 -1 -1 0 3 1 1 1 2 1 0 -0 -0 -1 -1 -1 -0 0 1 1 1 2 3 4 5 6 8 8 10 11 11 13
-3 -4 -4 -3 -3 -3 -3 -2 -2 -2 1 0 -0 -1 -0 -0 -0 -1 -1 -1 -2 -2 -2 -2 -2 -1 -1 -1 -0 0 1 1 3 5 5 7 9 9
-4 -5 -5 -4 -4 -4 -3 -3 -3 -2 -1 -0 -2 -2 -2 -2 -2 -2 -2 -3 -3 -3 -3 -3 -3 -3 -2 -2 -2 -1 -1 -0 0 1 2 3 2 4
-5 -5 -5 -5 -5 -4 -4 -4 -4 -3 -3 -2 -3 -3 -3 -3 -3 -3 -4 -3 -4 -4 -5 -4 -4 -4 -4 -3 -3 -3 -2 -2 -2 -2 -1 -1 -0 -1
-6 -6 -6 -6 -6 -6 -5 -5 -5 -3 -3 -3 -4 -4 -4 -4 -4 -4 -5 -5 -5 -4 -5 -5 -5 -5 -5 -5 -5 -4 -4 -4 -3 -3 -4 -4 -3 -3
-5 -5 -7 -7 -8 -7 -7 -6 -4 -4 -4 -4 -4 -5 -5 -5 -6 -5 -4 -6 -6 -6 -6 -6 -7 -5 -6 -7 -6 -6 -6 -5 -5 -5 -5 -5 -5 -4
-6 -6 -6 -7 -7 -9 -8 -8 -9 -5 -5 -5 -6 -6 -7 -6 -5 -6 -5 -4 -3 -6 -6 -7 -7 -8 -8 -8 -8 -8 -8 -7 -7 -7 -6 -6 -6 -6
-7 -7 -7 -8 -7 -7 -9 -8 -9 -9 -9 -7 -8 -8 -8 -8 -6 -5 -5 -6 -7 -7 -5 -5 -5 -6 -8 -9 -9 -9 -9 -9 -8 -8 -8 -7 -7 -7
-8 -8 -9 -9 -10 -9 -9 -9 -10 -10 -10 -10 -10 -10 -10 -9 -7 -5 -4 -5 -6 -8 -6 -5 -6 -6 -6 -7 -10 -10 -10 -10 -9 -9 -9 -8 -7 -6
-8 -9 -9 -10 -10 -10 -10 -10 -10 -10 -11 -11 -11 -11 -11 -11 -9 -6 -5 -1 -4 -8 -11 -6 -7 -6 -7 -7 -8 -9 -10 -10 -10 -9 -9 -9 -8 -6
-7 -8 -10 -10 -10 -11 -10 -9 -10 -11 -10 -10 -10 -10 -11 -11 -11 -11 -8 -7 -6 -6 -11 -7 -7 -7 -4 -7 -8 -9 -9 -10 -9 -9 -9 -9 -9 -7
-6 -7 -9 -11 -11 -11 -11 -12 -12 -10 -10 -9 -9 -9 -10 -10 -11 -12 -12 -11 -9 -10 -13 -9 -9 -7 -6 -6 -7 -9 -9 -9 -9 -9 -9 -9 -9 -9
-8 -9 -11 -11 -12 -12 -12 -12 -12 -10 -9 -9 -9 -10 -10 -10 -11 -11 -12 -12 -13 -13 -13 -12 -10 -9 -7 -6 -7 -9 -9 -9 -9 -9 -9 -9 -8 -8
-10 -12 -12 -13 -12 -12 -13 -12 -11 -10 -10 -9 -10 -10 -10 -11 -10 -10 -10 -10 -11 -12 -13 -13 -12 -10 -9 -8 -8 -9 -9 -9 -10 -10 -9 -8 -8 -8
-11 -12 -11 -12 -11 -12 -11 -11 -11 -12 -11 -10 -10 -10 -10 -10 -10 -10 -9 -9 -9 -9 -11 -12 -12 -11 -10 -9 -9 -9 -10 -9 -10 -10 -10 -9 -8 -9
-11 -10 -10 -9 -9 -9 -10 -11 -11 -11 -11 -11 -11 -10 -10 -10 -10 -10 -10 -9 -9 -9 -10 -10 -11 -11 -12 -12 -10 -11 -10 -10 -10 -11 -10 -9 -9 -9
-10 -9 -10 -10 -10 -10 -10 -10 -12 -12 -12 -12 -12 -12 -11 -11 -10 -10 -10 -10 -9 -10 -10 -11 -11 -9 -9 -13 -12 -12 -12 -11 -11 -11 -10 -10 -9 -9
-9 -10 -10 -10 -10 -10 -11 -11 -12 -14 -14 -13 -13 -13 -13 -12 -11 -11 -11 -11 -10 -10 -10 -11 -11 -11 -10 -9 -11 -13 -13 -13 -12 -12 -11 -11 -11 -10
-10 -10 -11 -11 -11 -11 -12 -12 -13 -14 -14 -14 -14 -15 -15 -13 -12 -12 -12 -13 -12 -11 -11 -11 -12 -13 -12 -12 -12 -12 -14 -14 -14 -13 -13 -12 -11 -11
-10 -11 -11 -12 -12 -13 -14 -14 -15 -16 -16 -15 -15 -15 -16 -14 -14 -14 -13 -14 -14 -12 -11 -12 -13 -15 -13 -13 -12 -12 -13 -14 -15 -15 -14 -13 -13 -12
-11 -11 -12 -13 -13 -14 -15 -15 -15 -15 -16 -15 -16 -16 -16 -15 -14 -15 -14 -14 -13 -13 -13 -13 -13 -13 -13 -13 -12 -13 -12 -13 -14 -14 -14 -15 -15 -14
-12 -12 -13 -14 -15 -15 -15 -15 -16 -16 -17 -17 -17 -17 -18 -16 -16 -15 -15 -15 -14 -14 -14 -14 -13 -13 -13 -13 -14 -13 -13 -13 -13 -13 -13 -13 -14 -15

GFSNE_925_temp_165.txt.gz
Temp
0 -2 -2 -2 -2 -1 -1 -1 -0 1 2 2 1 1 1 0 -0 -1 -1 -1 -1 0 1 2 2 3 5 6 10 12 12 12 13 13 12 13 13 12
-0 -2 -3 -2 -2 -2 -2 -1 -1 -1 1 0 0 -0 0 -0 -1 -1 -2 -2 -2 -2 -1 -1 -0 -0 0 1 3 4 5 7 7 9 8 9 10 11
-1 -2 -3 -3 -3 -3 -2 -2 -1 -2 -0 -0 -1 -2 -2 -2 -2 -2 -3 -3 -3 -3 -3 -2 -2 -2 -1 -1 -1 -1 1 2 3 4 4 5 5 5
-2 -3 -3 -4 -4 -3 -3 -3 -2 -2 -2 -1 -2 -2 -3 -3 -3 -3 -3 -4 -4 -4 -4 -4 -4 -4 -3 -3 -2 -2 -2 -2 -1 -1 0 1 2 2
-3 -4 -5 -5 -5 -5 -4 -3 -3 -2 -2 -2 -2 -3 -3 -3 -3 -4 -4 -4 -4 -5 -5 -5 -5 -5 -5 -4 -4 -3 -3 -3 -3 -3 -3 -2 -1 -1
-4 -5 -6 -6 -6 -6 -5 -5 -3 -2 -2 -2 -2 -3 -3 -4 -4 -4 -5 -5 -5 -5 -6 -6 -6 -7 -7 -6 -6 -5 -5 -4 -4 -4 -4 -4 -4 -3
-3 -3 -6 -6 -7 -7 -7 -7 -5 -3 -3 -3 -3 -4 -4 -3 -4 -4 -4 -5 -5 -5 -6 -6 -7 -8 -8 -8 -7 -7 -6 -6 -6 -5 -5 -5 -5 -5
-4 -4 -5 -6 -5 -7 -7 -8 -8 -6 -5 -4 -5 -5 -6 -6 -4 -4 -3 -3 -3 -5 -4 -6 -7 -8 -8 -8 -8 -8 -8 -7 -7 -6 -6 -6 -6 -7
-6 -6 -6 -7 -6 -5 -7 -8 -9 -9 -9 -7 -8 -8 -7 -7 -5 -4 -5 -5 -6 -7 -4 -4 -5 -6 -8 -8 -8 -8 -8 -8 -8 -7 -7 -6 -6 -7
-7 -7 -8 -9 -9 -8 -7 -8 -9 -9 -9 -9 -10 -10 -10 -9 -6 -4 -3 -4 -5 -7 -5 -4 -5 -5 -6 -7 -8 -8 -8 -8 -8 -8 -8 -7 -6 -6
-8 -9 -9 -9 -9 -8 -9 -9 -8 -8 -9 -9 -9 -9 -10 -10 -8 -5 -5 -2 -4 -8 -8 -6 -6 -5 -6 -7 -7 -7 -8 -8 -8 -8 -8 -7 -6 -5
-6 -8 -10 -10 -10 -10 -9 -8 -8 -8 -8 -8 -8 -8 -9 -10 -10 -10 -8 -6 -6 -7 -10 -8 -6 -5 -4 -6 -7 -8 -8 -8 -8 -7 -8 -8 -8 -6
-5 -7 -9 -10 -10 -10 -10 -10 -10 -8 -7 -7 -8 -8 -8 -9 -10 -11 -11 -10 -9 -10 -11 -9 -8 -6 -5 -5 -7 -8 -8 -8 -8 -8 -7 -7 -7 -8
-6 -8 -10 -11 -11 -11 -11 -10 -9 -8 -7 -7 -7 -8 -9 -9 -9 -10 -10 -11 -11 -12 -12 -10 -8 -8 -6 -5 -6 -8 -7 -8 -8 -8 -8 -7 -7 -8
-8 -9 -10 -11 -10 -10 -11 -10 -9 -8 -7 -7 -8 -8 -8 -9 -8 -8 -8 -9 -9 -10 -11 -11 -10 -9 -7 -7 -7 -8 -8 -8 -9 -9 -8 -8 -8 -8
-9 -10 -10 -10 -9 -9 -8 -9 -9 -9 -8 -8 -8 -8 -8 -8 -8 -8 -7 -7 -7 -7 -9 -10 -10 -10 -9 -8 -8 -8 -8 -8 -9 -9 -9 -8 -7 -8
-9 -9 -8 -7 -7 -7 -8 -9 -9 -9 -9 -9 -8 -8 -8 -8 -8 -8 -8 -7 -7 -7 -8 -9 -9 -10 -10 -10 -9 -10 -9 -9 -10 -10 -9 -8 -8 -8
-8 -7 -7 -7 -7 -7 -8 -8 -9 -10 -10 -10 -10 -9 -9 -9 -8 -8 -8 -8 -8 -8 -8 -9 -9 -8 -10 -12 -11 -11 -11 -11 -11 -10 -10 -9 -9 -9
-7 -7 -7 -8 -8 -8 -8 -9 -10 -11 -11 -11 -11 -11 -10 -9 -9 -9 -9 -9 -8 -8 -8 -9 -10 -10 -9 -9 -10 -12 -12 -12 -12 -12 -11 -11 -11 -10
-7 -7 -8 -8 -8 -8 -9 -9 -10 -11 -12 -11 -12 -12 -12 -10 -10 -10 -10 -11 -11 -9 -9 -9 -10 -12 -11 -11 -11 -11 -12 -12 -13 -13 -12 -12 -12 -11
-8 -8 -8 -9 -9 -10 -11 -12 -12 -13 -13 -13 -12 -13 -13 -12 -11 -12 -11 -12 -12 -10 -10 -10 -11 -12 -12 -11 -11 -11 -11 -12 -13 -13 -13 -13 -12 -12
-8 -8 -9 -10 -10 -11 -12 -12 -12 -13 -13 -13 -13 -14 -14 -13 -12 -12 -12 -12 -11 -11 -11 -11 -11 -11 -11 -11 -11 -11 -11 -12 -12 -12 -12 -12 -13 -13
-9 -9 -10 -11 -12 -12 -12 -12 -13 -13 -14 -14 -14 -14 -15 -14 -14 -13 -13 -13 -12 -13 -12 -12 -12 -11 -11 -11 -12 -12 -12 -12 -12 -12 -12 -12 -13 -13

GFSNE_925_temp_171.txt.gz
Temp
-2 -2 -3 -3 -3 -2 -2 -2 -1 -0 1 0 -1 -2 -2 -3 -3 -3 -4 -4 -4 -4 -3 -2 -1 -1 -0 0 2 6 10 12 13 13 13 13 14 15
-2 -3 -4 -4 -3 -3 -3 -2 -2 -1 -0 -1 -2 -3 -3 -3 -3 -4 -5 -4 -4 -4 -4 -4 -3 -2 -2 -2 -1 0 3 7 9 11 12 12 13 14
-3 -4 -5 -4 -4 -4 -3 -2 -2 -2 -1 -1 -2 -3 -3 -3 -4 -4 -4 -6 -5 -5 -5 -5 -4 -4 -3 -3 -3 -2 -2 -0 3 6 7 8 9 10
-4 -4 -5 -5 -5 -4 -4 -3 -2 -2 -2 -1 -2 -3 -3 -3 -4 -4 -5 -6 -6 -6 -6 -5 -5 -5 -5 -4 -3 -3 -3 -3 -2 1 2 3 4 5
-4 -5 -5 -5 -5 -5 -4 -3 -3 -3 -2 -3 -3 -4 -4 -4 -3 -4 -4 -5 -6 -6 -7 -6 -6 -6 -5 -5 -5 -4 -3 -4 -4 -3 -1 -0 0 1
-4 -5 -6 -6 -6 -6 -5 -5 -4 -4 -4 -5 -5 -6 -6 -5 -4 -4 -5 -5 -6 -6 -7 -7 -7 -6 -6 -6 -5 -5 -5 -5 -5 -4 -3 -3 -2 -2
-5 -5 -6 -6 -6 -7 -7 -6 -5 -6 -6 -7 -8 -8 -8 -8 -7 -5 -5 -5 -5 -6 -7 -7 -7 -7 -6 -6 -6 -5 -5 -5 -6 -5 -5 -5 -4 -4
-5 -5 -6 -6 -7 -7 -8 -8 -8 -7 -8 -9 -10 -9 -9 -9 -6 -6 -4 -5 -6 -5 -6 -7 -7 -7 -7 -6 -6 -6 -6 -5 -5 -6 -6 -6 -5 -5
-5 -5 -6 -6 -7 -7 -8 -8 -8 -8 -8 -9 -9 -9 -9 -9 -7 -6 -6 -7 -8 -6 -6 -7 -6 -7 -7 -6 -6 -6 -6 -6 -5 -6 -6 -6 -6 -6
-6 -6 -7 -7 -7 -7 -8 -8 -8 -8 -8 -8 -9 -9 -9 -9 -7 -7 -6 -6 -7 -7 -6 -6 -7 -7 -7 -7 -7 -6 -6 -6 -6 -5 -6 -6 -6 -7
-7 -7 -7 -8 -7 -8 -8 -8 -8 -8 -8 -8 -8 -9 -8 -8 -6 -5 -5 -6 -8 -9 -8 -8 -8 -8 -8 -8 -8 -8 -8 -7 -6 -6 -7 -7 -7 -7
-8 -9 -9 -9 -9 -8 -8 -8 -7 -8 -8 -8 -8 -8 -8 -8 -8 -7 -7 -9 -10 -10 -9 -8 -8 -8 -8 -9 -9 -8 -8 -7 -8 -7 -7 -8 -8 -8
-8 -8 -9 -9 -9 -8 -8 -8 -8 -7 -8 -8 -8 -8 -8 -8 -8 -8 -8 -8 -9 -10 -10 -8 -8 -7 -7 -9 -9 -9 -8 -8 -8 -8 -8 -8 -9 -9
-7 -8 -9 -9 -9 -8 -8 -8 -7 -7 -7 -8 -8 -8 -8 -8 -8 -8 -8 -8 -9 -9 -9 -8 -9 -8 -8 -9 -9 -10 -9 -9 -9 -9 -9 -8 -9 -10
-6 -7 -8 -9 -9 -9 -8 -8 -8 -8 -8 -8 -8 -8 -8 -8 -8 -8 -8 -9 -9 -9 -9 -9 -9 -9 -9 -9 -10 -10 -10 -10 -10 -9 -10 -9 -10 -10
-7 -8 -8 -9 -8 -8 -9 -8 -8 -8 -8 -8 -8 -8 -8 -8 -8 -8 -8 -8 -9 -9 -9 -9 -9 -9 -10 -10 -11 -11 -11 -12 -11 -11 -11 -11 -11 -11
-7 -8 -8 -8 -8 -8 -8 -9 -9 -9 -9 -9 -9 -9 -9 -8 -9 -8 -8 -8 -8 -9 -9 -10 -10 -10 -10 -10 -11 -11 -12 -12 -12 -12 -12 -12 -11 -12
-8 -8 -8 -8 -7 -8 -8 -9 -9 -10 -10 -10 -10 -10 -10 -9 -9 -9 -9 -9 -9 -9 -10 -10 -10 -11 -11 -11 -11 -12 -12 -12 -12 -12 -12 -13 -13 -12
-8 -8 -7 -7 -7 -7 -8 -9 -9 -10 -11 -11 -11 -11 -10 -10 -10 -11 -11 -11 -10 -10 -11 -11 -11 -11 -14 -18 -11 -12 -12 -12 -12 -12 -12 -12 -13 -12
-7 -7 -7 -7 -8 -8 -8 -9 -10 -11 -11 -12 -12 -12 -12 -11 -11 -12 -12 -12 -11 -11 -11 -11 -11 -11 -12 -12 -12 -11 -11 -12 -12 -12 -12 -12 -12 -13
-7 -8 -7 -8 -8 -8 -9 -10 -11 -11 -12 -12 -13 -13 -12 -12 -12 -12 -12 -12 -12 -12 -12 -12 -12 -12 -11 -11 -11 -12 -12 -12 -12 -12 -12 -12 -13 -13
-7 -7 -8 -8 -8 -9 -10 -11 -11 -12 -13 -13 -13 -13 -13 -13 -13 -13 -13 -13 -13 -13 -13 -13 -13 -13 -13 -13 -13 -13 -13 -13 -13 -13 -13 -13 -13 -14
-7 -8 -8 -9 -10 -10 -11 -12 -12 -13 -13 -13 -14 -14 -14 -14 -14 -14 -14 -14 -14 -14 -15 -15 -14 -15 -15 -14 -14 -14 -14 -14 -14 -15 -15 -15 -15 -14

GFSNE_925_temp_174.txt.gz
Temp
-1 -1 -2 -2 -2 -3 -2 -2 -1 -0 1 -1 -2 -3 -3 -3 -3 -4 -5 -5 -4 -4 -3 -3 -3 -2 -1 -1 0 1 3 7 11 13 14 13 13 14
-2 -2 -3 -3 -3 -3 -3 -2 -2 -1 -1 -1 -2 -3 -3 -4 -4 -4 -5 -5 -5 -4 -4 -4 -3 -3 -2 -2 -2 -1 -0 1 4 7 10 12 13 12
-2 -2 -3 -4 -3 -3 -3 -2 -2 -2 -1 -1 -2 -3 -3 -4 -3 -3 -5 -6 -6 -5 -5 -4 -4 -4 -3 -3 -3 -2 -2 -2 -0 1 3 5 8 10
-3 -3 -4 -5 -4 -3 -2 -2 -3 -2 -2 -2 -3 -3 -4 -4 -4 -4 -5 -5 -6 -6 -6 -5 -4 -5 -4 -4 -4 -3 -1 -1 -3 -2 -1 1 2 4
-3 -4 -5 -5 -4 -4 -3 -3 -3 -3 -3 -4 -4 -4 -4 -5 -4 -4 -4 -5 -6 -6 -7 -6 -5 -5 -5 -4 -4 -4 -4 -3 -2 -2 -3 -2 -1 -0
-4 -5 -6 -6 -5 -4 -4 -4 -4 -4 -4 -5 -6 -6 -6 -5 -5 -5 -5 -5 -5 -6 -7 -7 -7 -6 -5 -5 -4 -4 -5 -4 -4 -4 -3 -3 -4 -4
-5 -6 -6 -6 -6 -6 -5 -5 -4 -5 -6 -7 -8 -8 -9 -8 -7 -6 -6 -5 -6 -6 -7 -6 -6 -7 -6 -5 -5 -5 -5 -5 -5 -5 -5 -5 -5 -5
-5 -6 -6 -7 -7 -7 -7 -7 -6 -6 -7 -9 -10 -10 -9 -9 -7 -6 -6 -6 -7 -6 -7 -7 -7 -6 -7 -6 -5 -5 -5 -5 -5 -6 -6 -6 -6 -7
-5 -6 -6 -7 -6 -6 -8 -8 -8 -8 -8 -8 -9 -9 -9 -8 -7 -6 -6 -7 -8 -7 -7 -8 -8 -7 -7 -7 -6 -6 -5 -5 -6 -6 -6 -7 -7 -8
-5 -6 -6 -7 -7 -6 -7 -7 -8 -8 -8 -8 -9 -9 -9 -7 -6 -6 -7 -7 -7 -8 -7 -7 -8 -8 -8 -8 -8 -7 -7 -6 -6 -7 -7 -8 -8 -8
-6 -7 -7 -7 -7 -7 -7 -7 -8 -8 -8 -8 -8 -8 -8 -7 -6 -6 -6 -7 -8 -8 -8 -8 -8 -9 -9 -8 -8 -8 -7 -8 -7 -7 -8 -9 -9 -9
-8 -8 -7 -7 -8 -7 -7 -7 -8 -8 -8 -8 -8 -8 -8 -8 -7 -7 -7 -8 -9 -9 -9 -8 -8 -9 -9 -9 -9 -8 -8 -8 -7 -8 -8 -9 -9 -9
-8 -9 -9 -8 -8 -8 -8 -8 -8 -8 -8 -8 -8 -8 -8 -8 -8 -8 -8 -8 -9 -10 -9 -8 -8 -8 -9 -10 -9 -9 -9 -9 -8 -8 -9 -9 -10 -10
-7 -8 -9 -9 -9 -8 -8 -8 -7 -8 -8 -8 -8 -8 -8 -8 -8 -9 -8 -9 -9 -9 -9 -8 -8 -8 -8 -10 -11 -10 -10 -10 -9 -9 -10 -10 -11 -11
-7 -7 -9 -9 -9 -8 -8 -8 -8 -8 -8 -8 -8 -8 -8 -8 -8 -8 -9 -9 -9 -9 -9 -9 -9 -9 -9 -10 -11 -11 -11 -11 -11 -11 -11 -11 -11 -11
-7 -8 -9 -9 -9 -9 -9 -8 -8 -8 -8 -8 -8 -8 -8 -8 -8 -8 -8 -9 -9 -9 -9 -10 -10 -10 -11 -11 -11 -12 -12 -12 -11 -11 -11 -12 -11 -11
-7 -8 -9 -9 -9 -9 -9 -9 -9 -9 -9 -9 -9 -9 -9 -9 -9 -8 -8 -9 -9 -10 -10 -10 -11 -11 -11 -11 -12 -12 -12 -12 -12 -12 -12 -12 -12 -12
-8 -8 -8 -9 -9 -9 -9 -9 -9 -9 -10 -10 -10 -9 -9 -10 -9 -9 -9 -9 -10 -10 -10 -10 -10 -11 -11 -12 -12 -12 -12 -12 -12 -12 -12 -12 -12 -12
-8 -8 -8 -8 -8 -8 -9 -9 -9 -10 -10 -10 -11 -11 -10 -10 -10 -10 -11 -10 -11 -11 -11 -11 -11 -11 -14 -18 -11 -12 -12 -12 -12 -12 -12 -12 -12 -13
-8 -8 -8 -8 -7 -8 -8 -9 -10 -10 -11 -11 -11 -12 -11 -11 -11 -11 -11 -11 -11 -11 -12 -12 -12 -12 -12 -13 -12 -12 -12 -12 -12 -12 -13 -13 -13 -13
-8 -8 -7 -7 -8 -8 -8 -9 -10 -10 -11 -12 -12 -12 -12 -12 -12 -12 -12 -12 -12 -12 -13 -13 -13 -12 -12 -12 -13 -13 -13 -13 -13 -13 -14 -14 -14 -14
-8 -8 -8 -8 -8 -8 -9 -10 -11 -11 -12 -12 -13 -13 -13 -13 -13 -13 -13 -13 -13 -13 -14 -14 -14 -13 -13 -14 -14 -14 -14 -14 -14 -14 -14 -14 -15 -15
-8 -8 -8 -8 -8 -9 -9 -10 -11 -12 -12 -13 -13 -13 -14 -14 -14 -14 -14 -14 -14 -14 -14 -15 -15 -15 -15 -15 -15 -15 -15 -16 -16 -16 -16 -16 -16 -15

GFSNE_925_temp_180.txt.gz
Temp
1 1 0 -1 -1 -1 -2 -1 -0 0 1 -1 -1 -2 -3 -3 -4 -3 -4 -5 -4 -4 -4 -3 -3 -2 -2 -2 -1 -2 -1 -0 0 3 6 10 12 12
-0 0 -1 -1 -1 -1 -2 -1 -1 -1 -0 -0 -2 -2 -3 -3 -4 -4 -4 -4 -5 -5 -4 -4 -3 -3 -3 -3 -2 -3 -3 -2 -1 -0 3 5 8 10
-0 -1 -1 -2 -2 -2 -2 -1 -1 -1 -1 -1 -3 -3 -3 -4 -5 -4 -4 -4 -5 -5 -5 -5 -4 -4 -3 -3 -3 -4 -4 -3 -3 -2 -1 1 3 4
-1 -2 -2 -3 -2 -2 -2 -2 -2 -2 -2 -3 -4 -3 -4 -4 -5 -5 -5 -4 -5 -6 -6 -6 -5 -4 -4 -4 -4 -4 -4 -5 -4 -4 -3 -2 -1 -0
-1 -2 -2 -3 -3 -2 -2 -2 -2 -3 -3 -3 -4 -4 -4 -4 -4 -5 -5 -5 -5 -5 -6 -7 -7 -6 -4 -4 -4 -5 -5 -5 -5 -5 -5 -4 -4 -3
-2 -2 -3 -3 -2 -2 -2 -3 -3 -3 -3 -4 -5 -5 -5 -5 -5 -6 -6 -6 -6 -5 -6 -6 -6 -7 -6 -5 -5 -5 -6 -6 -5 -5 -6 -6 -5 -5
-3 -3 -4 -3 -3 -3 -2 -3 -3 -4 -4 -5 -6 -6 -7 -6 -7 -7 -6 -6 -6 -6 -7 -7 -7 -6 -7 -6 -5 -6 -6 -6 -6 -6 -6 -7 -6 -6
-4 -5 -5 -6 -5 -4 -3 -2 -3 -4 -5 -6 -7 -8 -8 -8 -7 -6 -6 -7 -7 -7 -7 -8 -8 -8 -8 -7 -6 -6 -7 -7 -7 -7 -7 -7 -7 -7
-4 -5 -5 -6 -5 -5 -5 -5 -5 -5 -6 -7 -8 -8 -8 -7 -6 -6 -7 -7 -8 -8 -8 -9 -8 -8 -8 -9 -8 -7 -7 -8 -8 -9 -9 -8 -8 -8
-4 -4 -4 -5 -5 -4 -5 -5 -6 -7 -8 -7 -8 -8 -8 -6 -6 -6 -7 -7 -8 -8 -8 -8 -9 -9 -8 -8 -10 -8 -8 -8 -8 -9 -10 -10 -10 -9
-5 -5 -5 -5 -6 -6 -5 -6 -7 -8 -9 -8 -8 -7 -7 -6 -5 -5 -6 -8 -8 -8 -8 -8 -9 -9 -9 -9 -9 -9 -10 -9 -8 -8 -9 -10 -11 -11
-6 -6 -6 -6 -7 -6 -5 -7 -8 -8 -8 -8 -8 -7 -7 -7 -6 -6 -6 -8 -8 -8 -9 -8 -9 -9 -9 -10 -10 -9 -9 -9 -9 -10 -10 -9 -11 -12
-6 -7 -7 -7 -7 -6 -7 -7 -7 -8 -8 -8 -8 -8 -8 -8 -8 -8 -8 -8 -8 -9 -9 -9 -9 -9 -10 -10 -11 -11 -11 -11 -10 -11 -10 -11 -10 -11
-6 -7 -7 -7 -7 -8 -7 -8 -8 -8 -8 -8 -8 -8 -8 -8 -8 -8 -8 -8 -9 -9 -9 -9 -9 -9 -10 -11 -11 -11 -11 -11 -11 -11 -11 -11 -11 -12
-6 -7 -7 -7 -7 -8 -8 -8 -8 -8 -8 -8 -8 -8 -8 -8 -8 -9 -9 -9 -9 -9 -9 -10 -10 -9 -10 -11 -12 -12 -11 -12 -12 -12 -12 -12 -12 -12
-7 -8 -8 -8 -8 -8 -8 -8 -8 -8 -8 -8 -8 -8 -8 -8 -8 -9 -9 -9 -9 -10 -10 -10 -11 -10 -11 -12 -12 -12 -12 -12 -12 -12 -12 -12 -12 -13
-7 -8 -8 -8 -9 -9 -9 -9 -8 -8 -8 -8 -8 -9 -9 -9 -9 -9 -9 -9 -9 -10 -11 -11 -11 -11 -11 -12 -12 -12 -12 -12 -12 -12 -12 -13 -13 -13
-8 -9 -9 -9 -9 -9 -9 -9 -9 -9 -9 -9 -9 -9 -9 -9 -9 -9 -9 -9 -10 -10 -11 -11 -11 -12 -12 -12 -12 -12 -12 -13 -13 -13 -13 -13 -13 -13
-7 -8 -8 -8 -9 -9 -9 -9 -9 -9 -9 -10 -10 -10 -10 -10 -10 -10 -10 -10 -11 -11 -11 -11 -12 -12 -13 -12 -12 -13 -13 -13 -13 -13 -14 -14 -14 -14
-7 -7 -8 -8 -9 -9 -9 -9 -9 -9 -10 -10 -10 -11 -11 -10 -11 -11 -11 -11 -11 -12 -12 -12 -12 -12 -13 -13 -13 -13 -13 -13 -14 -14 -14 -15 -14 -14
-8 -8 -7 -8 -8 -9 -9 -9 -9 -9 -9 -10 -11 -11 -11 -11 -11 -12 -12 -12 -12 -12 -13 -13 -13 -13 -13 -13 -13 -13 -14 -14 -14 -15 -15 -15 -15 -15
-8 -8 -8 -8 -8 -8 -8 -8 -9 -10 -10 -11 -11 -12 -12 -12 -12 -12 -12 -12 -12 -12 -13 -14 -14 -14 -14 -14 -15 -15 -15 -15 -15 -15 -16 -16 -16 -16
-7 -7 -8 -8 -8 -8 -8 -8 -9 -9 -10 -11 -11 -12 -13 -13 -13 -13 -13 -13 -13 -14 -14 -14 -15 -15 -15 -16 -16 -16 -16 -17 -17 -17 -16 -17 -17 -17

GFSNE_925_temp_183.txt.gz
Temp
4 4 1 0 0 1 1 2 5 6 5 0 0 -2 -2 -3 -4 -3 -4 -5 -4 -4 -4 -3 -2 -2 -2 -2 -2 -2 -2 -1 -1 0 0 2 6 9
2 1 0 -1 -1 -0 -0 0 1 4 5 2 -1 -2 -3 -3 -4 -4 -4 -5 -5 -5 -5 -4 -3 -3 -3 -3 -3 -3 -3 -3 -2 -2 -1 -0 2 4
3 2 -1 -1 -1 -1 -1 -0 0 2 3 -1 -2 -3 -3 -3 -4 -4 -4 -4 -4 -6 -5 -5 -4 -4 -4 -4 -4 -4 -4 -4 -3 -3 -3 -2 -1 0
1 -2 -2 -1 -1 -2 -1 -1 -1 -1 1 0 -3 -2 -3 -4 -5 -5 -5 -4 -5 -6 -6 -6 -5 -5 -4 -4 -5 -5 -5 -5 -5 -5 -5 -4 -3 -3
-1 -2 -2 -2 -2 -2 -2 -2 -2 -2 -1 -1 -2 -3 -3 -4 -4 -5 -5 -5 -5 -6 -6 -7 -6 -6 -5 -5 -5 -5 -5 -5 -5 -5 -6 -6 -5 -4
-1 -2 -1 -1 -1 -2 -3 -2 -3 -2 -3 -2 -2 -3 -4 -5 -5 -4 -3 -5 -5 -5 -6 -6 -7 -6 -6 -6 -6 -6 -6 -6 -6 -6 -6 -6 -6 -6
-2 -3 -2 -1 -1 -2 -3 -3 -4 -3 -2 -2 -3 -3 -4 -4 -5 -6 -4 -5 -6 -6 -4 -6 -5 -6 -6 -6 -6 -7 -7 -7 -7 -7 -7 -7 -7 -7
-4 -4 -4 -3 -3 -3 -3 -3 -3 -3 -3 -2 -3 -4 -7 -6 -6 -5 -4 -3 -1 -7 -6 -6 -6 -7 -7 -7 -7 -7 -7 -8 -8 -8 -8 -7 -8 -8
-4 -4 -5 -5 -5 -5 -5 -4 -3 -2 -3 -3 -4 -5 -6 -6 -6 -5 -5 -4 -4 -7 -6 -5 -6 -7 -8 -9 -8 -7 -7 -8 -8 -9 -9 -9 -8 -8
-4 -4 -5 -6 -6 -5 -6 -6 -6 -5 -4 -5 -5 -6 -6 -5 -6 -5 -5 -5 -6 -7 -8 -4 -7 -8 -8 -8 -10 -9 -8 -8 -8 -8 -9 -10 -10 -9
-4 -4 -4 -4 -5 -5 -5 -6 -8 -8 -8 -7 -6 -6 -6 -5 -5 -6 -5 -4 -4 -7 -8 -7 -7 -8 -9 -9 -9 -10 -10 -10 -10 -9 -9 -10 -10 -9
-5 -5 -5 -5 -6 -5 -4 -5 -7 -8 -8 -7 -7 -7 -6 -6 -5 -5 -6 -5 -6 -5 -8 -7 -8 -8 -6 -9 -10 -10 -10 -11 -11 -11 -10 -9 -9 -9
-7 -7 -7 -6 -7 -6 -6 -6 -6 -6 -7 -7 -7 -8 -8 -7 -7 -7 -7 -8 -7 -8 -9 -9 -8 -8 -8 -8 -9 -11 -11 -11 -11 -11 -11 -11 -11 -10
-6 -7 -7 -7 -7 -8 -7 -7 -7 -7 -7 -8 -8 -8 -8 -8 -8 -8 -8 -8 -8 -9 -9 -8 -9 -9 -8 -8 -8 -10 -11 -11 -11 -11 -11 -11 -11 -11
-5 -5 -6 -7 -7 -8 -7 -8 -7 -8 -8 -8 -7 -8 -8 -8 -8 -9 -9 -9 -9 -9 -9 -9 -10 -10 -9 -9 -9 -10 -10 -10 -11 -11 -11 -11 -11 -11
-6 -6 -7 -6 -7 -7 -8 -8 -8 -8 -7 -7 -7 -8 -9 -9 -8 -8 -8 -8 -8 -9 -10 -10 -10 -10 -10 -10 -10 -10 -10 -10 -11 -11 -11 -11 -11 -11
-8 -8 -8 -8 -8 -8 -8 -8 -8 -8 -8 -8 -8 -8 -8 -8 -8 -8 -8 -8 -8 -8 -9 -10 -11 -11 -11 -11 -10 -10 -10 -10 -11 -11 -11 -10 -11 -11
-8 -8 -7 -8 -8 -8 -8 -8 -8 -9 -8 -9 -8 -8 -8 -8 -8 -9 -9 -8 -8 -8 -9 -10 -10 -10 -10 -11 -11 -10 -10 -10 -11 -11 -11 -11 -10 -11
-8 -8 -8 -8 -8 -8 -8 -8 -9 -9 -9 -9 -9 -9 -9 -8 -9 -9 -9 -9 -9 -9 -9 -10 -10 -10 -8 -8 -10 -12 -11 -11 -11 -11 -11 -11 -12 -12
-7 -7 -8 -8 -8 -8 -9 -9 -9 -10 -9 -9 -9 -10 -10 -9 -9 -9 -9 -9 -9 -9 -10 -10 -10 -10 -10 -10 -10 -11 -13 -12 -12 -12 -12 -12 -12 -13
-8 -8 -8 -8 -9 -8 -9 -9 -9 -9 -9 -10 -10 -11 -11 -10 -10 -10 -10 -11 -10 -10 -10 -10 -11 -12 -12 -13 -12 -11 -12 -14 -14 -14 -13 -13 -12 -12
-8 -8 -8 -8 -9 -9 -9 -9 -10 -10 -10 -10 -11 -11 -11 -11 -11 -11 -11 -10 -11 -10 -10 -11 -13 -13 -12 -12 -11 -12 -12 -14 -15 -15 -15 -16 -14 -13
-8 -8 -8 -9 -8 -9 -9 -9 -9 -9 -10 -10 -11 -12 -12 -12 -12 -12 -11 -12 -11 -12 -12 -12 -13 -13 -13 -13 -14 -13 -14 -14 -14 -14 -14 -16 -17 -17

GFSNE_925_temp_186.txt.gz
Temp
5 5 6 5 6 7 8 10 11 10 9 3 1 1 1 -1 -1 -0 -1 -4 -4 -4 -4 -3 -2 -2 -3 -3 -3 -3 -2 -2 -2 -1 -1 -0 0 1
4 5 4 4 5 6 6 6 7 10 9 5 2 1 1 -0 -2 -1 -3 -3 -4 -5 -4 -4 -3 -3 -3 -4 -3 -3 -3 -3 -3 -3 -2 -2 -2 -1
3 3 3 4 4 4 5 5 6 7 7 2 -0 -0 0 1 -0 -1 -1 -1 -3 -5 -5 -5 -4 -4 -4 -5 -5 -4 -4 -4 -4 -4 -4 -3 -2 -2
2 3 2 3 3 3 4 4 5 5 6 3 1 0 0 -1 -2 -2 -1 -1 -2 -4 -6 -5 -5 -5 -5 -5 -5 -5 -5 -5 -5 -5 -5 -5 -4 -3
2 2 1 2 2 2 2 3 3 3 4 3 2 2 0 -0 -2 -3 -2 -1 -1 -4 -4 -5 -5 -5 -5 -5 -6 -6 -6 -6 -5 -6 -6 -6 -6 -5
0 0 0 1 1 1 1 1 1 2 3 3 2 1 1 -1 0 1 0 -1 -1 -2 -3 -4 -4 -5 -5 -5 -6 -6 -7 -7 -7 -6 -6 -7 -7 -6
-1 -1 -1 -0 -1 -0 1 0 0 2 2 3 2 1 0 -0 1 -1 1 -0 -2 -3 -1 -2 -2 -3 -4 -5 -6 -6 -7 -7 -8 -8 -7 -7 -7 -7
-1 -1 -2 -1 -0 -0 -1 -1 0 1 3 3 3 2 -3 -3 -3 -1 0 1 2 -4 -3 -2 -2 -3 -5 -6 -7 -7 -7 -7 -8 -8 -8 -8 -8 -8
-1 -1 -2 -2 -3 -2 -1 -1 -1 -1 1 2 2 0 -3 -3 -1 -1 -1 0 0 -3 -3 -1 -3 -4 -5 -7 -8 -8 -8 -8 -8 -8 -8 -9 -8 -9
-2 -2 -3 -3 -2 -3 -2 -3 -4 -3 -2 -2 -3 -4 -4 -4 -2 -0 -0 -1 -2 -4 -5 -0 -4 -5 -5 -6 -8 -9 -9 -9 -9 -8 -8 -8 -8 -8
-3 -3 -4 -4 -4 -3 -4 -5 -6 -6 -5 -5 -4 -4 -3 -3 -4 -2 -2 -0 -1 -4 -6 -4 -5 -6 -7 -7 -7 -9 -9 -10 -10 -9 -9 -9 -8 -7
-5 -4 -4 -4 -5 -5 -5 -5 -5 -6 -7 -7 -6 -6 -5 -4 -4 -4 -3 -1 -2 -3 -6 -5 -5 -6 -4 -7 -8 -8 -8 -10 -9 -9 -10 -10 -10 -7
-4 -5 -5 -6 -6 -6 -6 -5 -5 -6 -7 -7 -7 -7 -7 -7 -6 -5 -6 -4 -4 -5 -7 -7 -6 -5 -5 -5 -7 -8 -8 -9 -8 -8 -9 -10 -10 -10
-4 -4 -5 -6 -6 -6 -5 -6 -6 -7 -7 -6 -6 -6 -6 -6 -7 -7 -7 -7 -7 -7 -8 -8 -7 -7 -5 -5 -6 -7 -8 -8 -8 -8 -8 -9 -9 -9
-4 -5 -6 -6 -6 -7 -7 -6 -6 -6 -6 -5 -5 -5 -5 -6 -8 -8 -8 -8 -9 -9 -8 -8 -8 -8 -7 -6 -6 -7 -7 -8 -8 -8 -8 -8 -9 -9
-6 -6 -6 -6 -6 -6 -7 -8 -7 -6 -5 -5 -4 -5 -6 -6 -6 -6 -6 -6 -5 -7 -9 -9 -9 -8 -7 -7 -7 -7 -7 -7 -8 -8 -8 -8 -8 -9
-6 -6 -6 -5 -5 -6 -6 -6 -6 -6 -6 -5 -5 -5 -5 -5 -5 -5 -5 -5 -5 -5 -6 -8 -9 -9 -9 -9 -7 -7 -7 -7 -8 -8 -8 -8 -8 -9
-6 -6 -5 -5 -5 -5 -5 -5 -5 -6 -5 -5 -5 -5 -5 -5 -5 -5 -5 -5 -4 -5 -5 -6 -7 -7 -7 -9 -9 -8 -7 -7 -8 -8 -8 -8 -8 -8
-6 -6 -5 -5 -5 -5 -5 -5 -5 -5 -5 -6 -6 -6 -5 -5 -6 -5 -6 -5 -5 -5 -5 -6 -7 -7 -5 -5 -8 -10 -9 -8 -8 -8 -8 -8 -9 -9
-6 -6 -6 -6 -5 -5 -5 -5 -5 -6 -7 -6 -6 -6 -6 -6 -6 -6 -6 -6 -5 -5 -6 -6 -7 -7 -7 -6 -7 -9 -11 -11 -9 -9 -9 -9 -9 -10
-6 -6 -6 -6 -6 -6 -6 -6 -6 -7 -7 -7 -7 -7 -7 -7 -6 -6 -6 -7 -7 -6 -6 -6 -7 -9 -10 -10 -9 -8 -11 -12 -12 -12 -12 -11 -9 -9
-7 -6 -6 -6 -6 -6 -6 -7 -7 -7 -7 -7 -7 -8 -8 -8 -7 -7 -7 -7 -8 -7 -6 -7 -9 -10 -9 -9 -8 -9 -9 -10 -12 -13 -13 -14 -13 -11
-6 -6 -6 -6 -6 -6 -6 -6 -6 -7 -7 -7 -7 -8 -8 -8 -8 -8 -8 -8 -7 -8 -8 -8 -9 -10 -10 -10 -10 -10 -10 -12 -11 -11 -11 -14 -14 -16

GFSNE_925_temp_192.txt.gz
Temp
10 10 11 11 12 11 9 7 6 4 4 4 5 4 3 2 0 -1 -1 -3 -3 -3 -3 -3 -3 -3 -3 -3 -3 -3 -3 -3 -3 -2 -2 -1 -1 -1
9 10 9 8 10 9 8 9 8 7 6 4 5 4 3 1 1 -0 -1 -3 -4 -4 -4 -4 -4 -4 -4 -4 -4 -4 -4 -4 -4 -4 -3 -3 -2 -2
7 7 6 7 7 8 10 10 9 10 5 4 4 3 2 1 0 0 -1 -2 -3 -4 -4 -4 -4 -5 -5 -5 -5 -5 -5 -5 -5 -5 -5 -4 -4 -3
4 5 5 6 7 8 8 8 10 8 6 4 3 3 2 1 1 1 -1 -2 -1 -2 -3 -4 -4 -5 -5 -5 -5 -6 -6 -6 -6 -6 -6 -6 -5 -5
4 4 5 5 5 6 6 7 7 6 5 3 3 3 2 1 1 2 2 -0 -1 -1 -2 -3 -4 -4 -5 -5 -6 -5 -6 -6 -6 -6 -6 -7 -6 -6
2 2 3 4 4 5 5 6 5 4 3 2 2 2 1 1 0 0 1 1 -1 -1 -2 -2 -3 -4 -5 -5 -6 -6 -6 -6 -6 -6 -7 -7 -7 -6
0 1 2 3 4 5 5 5 5 3 2 2 2 1 1 -0 -1 -0 0 1 1 0 0 -1 -2 -3 -4 -5 -6 -7 -7 -7 -7 -7 -7 -7 -7 -7
0 0 1 3 3 3 4 4 4 3 3 2 2 1 1 0 1 1 1 -0 -1 0 -1 -0 -1 -2 -3 -4 -5 -6 -8 -8 -7 -8 -8 -7 -7 -7
-0 -0 1 2 2 2 3 3 4 4 3 3 2 2 0 1 1 2 1 1 1 -0 -1 -1 -1 -2 -3 -5 -5 -6 -8 -8 -8 -8 -8 -8 -7 -7
-0 0 0 0 1 1 2 2 3 3 4 4 3 2 2 1 1 1 2 1 -1 -1 -1 -1 -2 -3 -4 -5 -6 -6 -7 -8 -8 -8 -8 -7 -7 -7
-0 -1 -1 -1 0 1 1 0 -0 0 1 3 3 2 1 1 1 2 1 0 -1 -3 -2 -2 -3 -4 -4 -5 -6 -7 -7 -7 -8 -8 -8 -8 -8 -7
-2 -2 -2 -2 -1 -1 0 -0 -2 -2 -0 0 0 0 -0 -0 0 1 1 0 -1 -3 -3 -3 -4 -4 -5 -5 -6 -6 -7 -7 -7 -7 -7 -8 -8 -8
-3 -3 -2 -2 -2 -2 -1 -1 -1 -2 -2 -1 -2 -2 -2 -2 -1 -1 -0 0 -1 -3 -3 -4 -4 -4 -4 -5 -6 -7 -6 -7 -7 -7 -7 -7 -8 -9
-3 -3 -3 -2 -3 -3 -3 -3 -3 -3 -4 -4 -4 -5 -4 -4 -3 -3 -2 -2 -1 -1 -3 -4 -4 -4 -4 -4 -5 -6 -6 -7 -7 -7 -7 -7 -7 -8
-3 -4 -4 -4 -4 -4 -4 -4 -5 -5 -5 -5 -5 -5 -5 -5 -5 -4 -4 -4 -4 -4 -4 -5 -6 -5 -5 -5 -4 -5 -6 -6 -7 -7 -7 -7 -7 -8
-3 -4 -5 -5 -5 -5 -5 -5 -5 -5 -4 -4 -4 -4 -5 -5 -5 -5 -5 -5 -5 -6 -6 -6 -6 -6 -6 -5 -5 -5 -6 -6 -6 -7 -7 -7 -7 -7
-4 -5 -6 -6 -6 -6 -6 -6 -5 -5 -4 -4 -3 -4 -5 -5 -5 -5 -5 -5 -5 -6 -7 -6 -6 -7 -7 -6 -6 -5 -5 -6 -6 -7 -7 -7 -7 -7
-5 -5 -5 -5 -5 -6 -6 -6 -5 -5 -4 -4 -3 -4 -4 -4 -4 -4 -4 -4 -4 -4 -6 -6 -6 -7 -7 -7 -6 -6 -6 -6 -6 -7 -7 -7 -7 -7
-5 -4 -4 -4 -4 -5 -5 -5 -5 -5 -4 -4 -4 -4 -4 -4 -3 -3 -3 -3 -3 -3 -3 -5 -6 -6 -6 -9 -7 -7 -7 -7 -7 -7 -7 -7 -8 -8
-4 -4 -4 -4 -4 -4 -5 -5 -5 -5 -5 -5 -4 -4 -4 -4 -3 -4 -4 -4 -4 -4 -3 -3 -5 -5 -5 -6 -7 -8 -8 -8 -8 -9 -9 -9 -9 -9
-4 -4 -4 -4 -4 -4 -5 -5 -5 -5 -5 -5 -5 -5 -4 -4 -4 -4 -4 -4 -4 -4 -4 -4 -4 -5 -6 -6 -7 -8 -8 -9 -9 -9 -10 -10 -11 -10
-5 -4 -4 -5 -5 -5 -5 -5 -5 -5 -5 -6 -6 -5 -5 -5 -5 -5 -5 -5 -5 -5 -5 -6 -5 -6 -7 -7 -8 -7 -9 -9 -10 -10 -10 -10 -11 -11
-5 -5 -5 -5 -5 -5 -6 -6 -6 -6 -6 -6 -7 -6 -6 -6 -6 -6 -5 -5 -6 -6 -6 -6 -7 -7 -7 -7 -7 -8 -8 -9 -9 -9 -10 -10 -10 -11

GFSNE_925_temp_195.txt.gz
Temp
9 10 10 11 11 10 8 7 7 4 4 4 3 3 3 3 1 -1 -2 -2 -2 -2 -3 -3 -3 -3 -3 -3 -3 -3 -3 -2 -2 -2 -2 -1 -1 -1
8 8 9 11 11 9 8 7 7 5 4 4 3 1 2 1 -0 -1 -1 -3 -3 -3 -3 -3 -4 -4 -4 -4 -4 -4 -4 -4 -4 -3 -3 -3 -2 -2
7 8 9 10 8 7 6 6 6 6 4 3 2 2 2 1 -1 -1 -2 -3 -3 -4 -4 -4 -4 -4 -5 -5 -5 -5 -5 -5 -5 -5 -4 -4 -3 -3
6 6 6 7 8 6 6 6 6 6 4 3 1 1 1 0 -0 -1 -2 -3 -3 -3 -4 -4 -4 -5 -5 -5 -5 -5 -5 -6 -6 -6 -6 -5 -5 -4
5 5 5 6 5 6 6 6 6 6 5 3 1 0 -0 -1 -1 -1 -2 -2 -2 -3 -3 -4 -4 -5 -5 -5 -6 -6 -6 -6 -6 -6 -6 -6 -6 -5
4 4 5 6 5 5 5 5 5 3 3 2 1 -0 -0 -1 0 -2 -3 -2 -2 -3 -3 -3 -4 -5 -4 -4 -6 -6 -7 -6 -6 -6 -6 -7 -6 -6
3 4 4 4 5 6 6 5 4 2 2 1 1 0 -0 -1 -1 -2 -3 -2 -1 -1 -2 -4 -4 -4 -4 -4 -4 -7 -7 -7 -7 -7 -7 -6 -7 -6
2 2 3 3 4 3 3 3 5 3 2 1 1 1 -0 -1 -0 -1 -1 -2 -2 -1 -2 -3 -4 -4 -4 -4 -5 -6 -8 -7 -7 -7 -7 -7 -7 -7
0 1 1 1 1 2 2 4 4 5 7 3 1 1 -0 -1 -1 -1 -1 -0 0 -1 -1 -2 -3 -4 -4 -4 -5 -6 -7 -8 -7 -8 -7 -7 -7 -7
-0 -0 0 -0 1 2 3 3 3 3 3 3 2 1 1 0 0 -0 -0 0 0 -1 -1 -2 -3 -3 -4 -5 -5 -6 -7 -7 -8 -7 -7 -7 -7 -8
-1 -0 -0 0 1 2 2 2 1 2 3 3 3 2 2 1 1 1 -0 -1 -2 -2 -1 -2 -3 -4 -5 -5 -5 -6 -7 -7 -7 -8 -7 -8 -7 -7
-1 -1 0 0 0 1 1 2 0 0 2 2 2 2 2 1 1 2 1 -1 -2 -3 -2 -2 -3 -3 -5 -5 -5 -6 -6 -7 -7 -7 -7 -7 -8 -8
-2 -2 -1 -1 -0 -0 1 1 2 -0 0 1 1 0 0 0 1 1 1 2 0 -2 -2 -2 -4 -4 -4 -6 -6 -6 -6 -6 -7 -7 -7 -7 -8 -8
-3 -2 -2 -1 -1 -1 -0 0 1 -0 -1 -0 -1 -2 -1 -1 -1 -0 -0 0 0 0 -1 -3 -4 -4 -4 -5 -6 -6 -6 -7 -7 -7 -7 -7 -8 -8
-3 -3 -3 -3 -3 -2 -2 -1 -1 -1 -2 -3 -3 -3 -3 -2 -2 -2 -2 -2 -1 -2 -3 -3 -3 -4 -4 -4 -5 -6 -6 -6 -7 -7 -7 -7 -7 -8
-4 -4 -4 -4 -3 -3 -4 -3 -3 -3 -3 -4 -4 -4 -4 -4 -4 -3 -4 -4 -3 -5 -5 -5 -4 -5 -5 -5 -5 -5 -6 -6 -7 -7 -7 -7 -7 -8
-5 -5 -5 -5 -5 -5 -5 -5 -5 -4 -4 -4 -5 -5 -5 -5 -5 -5 -4 -5 -5 -6 -6 -6 -6 -6 -6 -6 -6 -6 -6 -6 -6 -6 -7 -7 -7 -8
-5 -6 -6 -6 -6 -6 -6 -5 -5 -4 -4 -4 -4 -5 -5 -5 -6 -6 -5 -5 -5 -6 -5 -6 -6 -7 -7 -7 -6 -6 -6 -6 -6 -7 -7 -7 -7 -8
-5 -6 -6 -6 -7 -6 -6 -6 -5 -5 -4 -4 -4 -5 -5 -5 -5 -5 -5 -5 -4 -4 -5 -5 -6 -7 -8 -10 -7 -7 -7 -7 -7 -7 -8 -8 -8 -9
-5 -5 -5 -5 -6 -6 -6 -6 -5 -5 -4 -4 -4 -4 -4 -4 -4 -4 -4 -4 -3 -3 -4 -5 -6 -6 -6 -7 -7 -7 -7 -7 -7 -8 -8 -8 -9 -9
-5 -5 -5 -4 -5 -5 -5 -5 -5 -5 -5 -4 -4 -4 -4 -4 -4 -4 -4 -4 -4 -4 -4 -5 -4 -4 -5 -6 -7 -7 -7 -8 -8 -9 -9 -9 -10 -11
-4 -4 -4 -4 -4 -4 -5 -5 -5 -5 -5 -5 -5 -5 -5 -5 -5 -5 -5 -5 -4 -4 -4 -5 -5 -5 -6 -6 -7 -8 -8 -8 -9 -9 -9 -10 -10 -10
-4 -4 -4 -4 -4 -4 -5 -5 -5 -5 -5 -5 -6 -6 -6 -6 -6 -6 -5 -5 -5 -5 -5 -6 -7 -7 -7 -7 -7 -8 -8 -9 -9 -9 -9 -10 -10 -10

GFSNE_925_temp_201.txt.gz
Temp
9 9 9 9 8 8 7 7 7 4 3 1 0 0 2 2 2 1 1 1 1 1 0 -0 -0 -0 -1 -1 -1 -1 -1 -1 -1 -1 -1 -1 -1 -0
9 9 9 9 9 8 7 7 7 8 5 3 1 -0 0 1 1 1 1 0 0 -1 -1 -1 -2 -2 -2 -2 -2 -2 -3 -3 -2 -2 -2 -2 -1 -1
8 9 9 9 8 7 7 7 7 7 6 2 1 0 -0 -0 -0 -0 -0 -1 -1 -1 -2 -2 -3 -3 -3 -3 -4 -4 -4 -4 -4 -4 -3 -3 -3 -2
6 7 9 9 9 8 7 7 7 6 5 1 -0 -0 -0 -1 -1 -1 -1 -1 -2 -3 -3 -3 -4 -4 -4 -4 -5 -5 -5 -5 -5 -5 -5 -4 -4 -4
5 6 8 9 8 7 7 7 6 5 4 1 -0 -0 -1 -1 -2 -2 -2 -2 -3 -3 -3 -4 -4 -4 -4 -5 -5 -5 -5 -5 -5 -6 -6 -6 -5 -5
4 5 6 8 8 8 7 6 5 4 2 1 -0 -1 -2 -3 -2 -3 -3 -3 -3 -3 -4 -4 -4 -5 -5 -5 -5 -6 -6 -6 -6 -6 -6 -6 -6 -6
5 6 6 7 8 8 7 5 5 3 1 0 -0 -1 -2 -3 -3 -3 -3 -4 -3 -4 -4 -4 -5 -5 -5 -6 -6 -6 -6 -6 -6 -6 -6 -6 -7 -7
5 7 6 7 7 6 5 5 4 2 1 1 -0 -1 -2 -2 -3 -3 -4 -4 -4 -4 -4 -4 -4 -5 -5 -5 -5 -6 -6 -7 -7 -7 -6 -6 -7 -7
4 5 6 6 5 4 4 4 3 1 1 1 -0 -0 -2 -2 -3 -3 -4 -3 -3 -4 -4 -5 -5 -5 -5 -5 -5 -5 -6 -7 -7 -7 -7 -7 -7 -7
4 4 4 4 4 3 3 3 2 2 2 1 1 1 -0 -1 -2 -2 -3 -3 -3 -4 -4 -5 -5 -5 -5 -5 -6 -6 -6 -7 -7 -7 -7 -7 -7 -7
2 3 3 3 3 3 3 2 1 1 2 4 3 2 -1 -1 -2 -3 -4 -2 -4 -5 -4 -4 -6 -6 -6 -6 -6 -7 -6 -6 -7 -7 -7 -7 -7 -7
0 2 2 2 2 2 2 2 1 0 1 1 0 -0 -0 -1 -1 1 -2 -1 -3 -5 -4 -2 -6 -5 -6 -6 -6 -6 -7 -7 -7 -7 -7 -7 -7 -7
-1 -0 1 3 3 3 2 1 1 1 1 0 -1 -1 -1 -2 -2 -1 -1 -1 -1 -2 -2 -2 -5 -5 -5 -7 -6 -6 -6 -6 -7 -7 -7 -7 -7 -7
-2 -1 -0 1 1 2 2 2 1 0 -0 -1 -2 -2 -2 -2 -2 -1 -1 -1 -0 2 0 -2 -3 -4 -4 -7 -7 -6 -6 -7 -7 -7 -7 -8 -8 -8
-2 -2 -1 -1 -1 -1 -1 -0 -0 -1 -2 -3 -3 -4 -3 -2 -2 -2 -1 -1 -1 0 0 -1 -1 -2 -3 -4 -6 -7 -7 -7 -7 -7 -7 -7 -7 -7
-2 -1 -2 -2 -2 -3 -1 -1 -1 -2 -2 -3 -5 -4 -3 -3 -2 -2 -2 -2 -2 -3 -3 -3 -2 -1 -3 -3 -3 -6 -6 -6 -7 -7 -7 -7 -7 -7
-3 -3 -4 -4 -5 -4 -4 -3 -3 -2 -2 -4 -3 -4 -5 -4 -4 -3 -2 -3 -3 -5 -5 -4 -4 -3 -3 -3 -5 -4 -6 -6 -6 -6 -7 -7 -7 -7
-3 -5 -5 -5 -5 -5 -5 -5 -4 -3 -3 -3 -4 -4 -5 -4 -5 -4 -3 -3 -4 -6 -5 -5 -5 -5 -5 -6 -5 -5 -6 -6 -6 -6 -7 -7 -7 -7
-4 -5 -6 -6 -6 -5 -5 -5 -5 -5 -4 -4 -4 -4 -5 -5 -5 -5 -5 -4 -5 -6 -6 -6 -6 -5 -7 -9 -6 -6 -5 -6 -6 -7 -7 -7 -7 -8
-5 -5 -6 -6 -5 -5 -5 -5 -5 -5 -4 -5 -5 -5 -5 -5 -6 -6 -6 -5 -6 -7 -7 -7 -6 -6 -6 -7 -7 -6 -6 -6 -6 -6 -7 -8 -8 -9
-5 -5 -5 -5 -5 -5 -5 -5 -4 -5 -5 -5 -5 -5 -5 -5 -5 -5 -5 -5 -5 -6 -7 -7 -6 -6 -6 -6 -6 -8 -7 -7 -7 -7 -7 -8 -9 -9
-5 -5 -6 -5 -5 -5 -5 -5 -5 -5 -4 -4 -4 -4 -5 -4 -5 -5 -5 -5 -5 -5 -6 -6 -6 -6 -7 -7 -7 -8 -8 -8 -8 -8 -8 -8 -8 -10
-5 -5 -5 -5 -5 -5 -5 -5 -5 -5 -5 -4 -4 -5 -5 -5 -5 -5 -5 -5 -5 -6 -6 -7 -7 -7 -7 -8 -8 -8 -9 -9 -9 -10 -10 -10 -10 -10

GFSNE_925_temp_204.txt.gz
Temp
7 8 8 8 9 9 8 9 9 6 4 2 2 2 3 4 4 3 4 4 4 3 3 3 2 2 1 1 1 1 0 0 0 0 0 0 0 0
7 7 7 8 8 9 9 8 8 9 6 3 3 2 2 3 3 3 3 3 3 3 2 1 1 0 0 -0 -1 -1 -1 -1 -1 -1 -1 -1 -1 -1
6 7 7 7 8 9 9 8 8 8 7 3 2 1 1 2 2 2 2 1 1 1 1 0 -0 -1 -1 -1 -2 -2 -2 -2 -2 -2 -2 -2 -2 -2
5 5 6 6 7 8 8 7 8 8 8 2 0 0 1 1 0 -0 0 0 0 -0 -1 -1 -2 -2 -2 -3 -3 -3 -4 -4 -4 -4 -4 -3 -3 -3
3 3 4 4 5 6 7 8 7 7 7 2 0 0 1 0 -1 -0 -1 -1 -1 -1 -2 -2 -3 -3 -4 -4 -4 -5 -5 -5 -5 -5 -5 -5 -5 -5
2 2 3 3 4 5 7 7 7 7 5 1 0 0 -1 -2 -1 -2 -2 -2 -2 -2 -3 -3 -3 -4 -4 -4 -5 -5 -5 -5 -5 -6 -6 -6 -6 -6
1 1 2 3 3 4 5 8 7 6 3 2 1 -1 -1 -2 -1 -2 -2 -3 -2 -3 -3 -4 -4 -4 -5 -5 -5 -5 -6 -6 -6 -6 -6 -6 -7 -7
1 2 3 3 4 4 4 6 7 5 3 1 0 -0 -1 -1 -2 -2 -3 -3 -3 -3 -4 -4 -4 -5 -5 -6 -6 -6 -6 -6 -6 -6 -6 -6 -7 -6
1 2 3 4 5 5 4 5 7 6 4 2 0 1 -1 -1 -2 -2 -3 -2 -3 -4 -4 -5 -5 -5 -5 -5 -6 -6 -6 -7 -6 -6 -6 -7 -7 -6
1 2 3 5 6 5 5 5 4 3 2 2 0 -1 -1 -2 -2 -2 -3 -3 -4 -4 -4 -4 -5 -6 -6 -5 -6 -6 -7 -7 -7 -7 -7 -7 -7 -7
1 1 3 4 4 5 3 2 1 0 1 0 -0 -1 -1 -2 -2 -3 -4 -3 -4 -4 -4 -5 -6 -6 -6 -6 -6 -6 -7 -7 -7 -7 -7 -7 -7 -7
-0 1 2 2 2 1 0 0 -0 -0 -0 -0 -1 -1 -2 -3 -3 -1 -3 -3 -4 -4 -4 -5 -6 -5 -7 -6 -6 -6 -7 -7 -7 -7 -7 -7 -7 -7
-1 -1 -0 1 1 1 1 0 -0 -0 -0 -1 -2 -2 -3 -3 -3 -3 -3 -3 -3 -4 -4 -3 -6 -5 -5 -8 -7 -6 -6 -7 -7 -7 -7 -7 -7 -7
-2 -1 0 1 0 0 -0 -0 -0 -0 -1 -2 -2 -2 -3 -3 -3 -3 -3 -3 -3 1 -2 -3 -5 -5 -6 -7 -7 -7 -7 -7 -7 -7 -7 -7 -8 -8
-3 -3 -2 -0 -0 -0 -0 0 0 -1 -2 -2 -2 -2 -3 -3 -3 -3 -3 -3 0 0 -3 -2 0 -4 -2 -5 -8 -8 -7 -7 -7 -7 -7 -7 -8 -8
-2 -4 -4 -3 -3 -2 -1 -1 -1 -2 -3 -4 -5 -4 -4 -3 -3 -3 -3 -3 -2 -5 -4 -3 -1 -1 -3 -2 -2 -7 -6 -6 -7 -7 -7 -7 -7 -8
-2 -2 -3 -4 -4 -4 -4 -3 -3 -3 -4 -4 -4 -4 -4 -3 -4 -3 -3 -2 -4 -6 -5 -4 -3 -3 -2 -2 -5 -5 -6 -6 -6 -7 -7 -7 -7 -7
-4 -5 -5 -5 -5 -5 -5 -5 -4 -4 -4 -4 -4 -4 -5 -5 -5 -4 -3 -2 -5 -6 -5 -5 -4 -5 -5 -5 -4 -5 -6 -6 -6 -6 -7 -7 -7 -7
-5 -5 -6 -6 -5 -5 -5 -5 -5 -5 -5 -5 -5 -5 -5 -5 -5 -5 -4 -4 -6 -6 -6 -5 -5 -4 -6 -6 -7 -5 -5 -6 -6 -7 -7 -7 -7 -7
-5 -6 -6 -5 -5 -5 -5 -5 -5 -4 -4 -4 -4 -4 -4 -4 -5 -5 -5 -5 -6 -7 -7 -6 -5 -4 -5 -6 -7 -7 -6 -6 -6 -7 -8 -8 -8 -8
-6 -5 -5 -5 -5 -5 -5 -5 -5 -5 -5 -4 -5 -4 -4 -4 -5 -5 -5 -5 -5 -6 -7 -7 -6 -5 -5 -5 -6 -9 -8 -7 -6 -6 -8 -8 -9 -10
-5 -5 -5 -5 -5 -5 -5 -4 -5 -4 -4 -4 -5 -4 -4 -4 -5 -5 -5 -6 -6 -6 -6 -6 -6 -6 -6 -6 -7 -8 -8 -8 -8 -7 -8 -8 -8 -10
-5 -5 -5 -5 -5 -5 -5 -5 -5 -5 -4 -4 -4 -5 -5 -5 -5 -5 -5 -5 -5 -5 -6 -7 -7 -7 -7 -7 -7 -8 -9 -9 -9 -9 -9 -9 -9 -9

GFSNE_925_temp_210.txt.gz
Temp
8 8 8 9 10 11 10 11 12 11 12 13 9 8 7 7 8 8 8 8 8 9 9 8 7 7 6 6 6 6 6 5 5 5 5 4 4 4
7 6 6 6 6 8 8 9 10 11 11 11 11 8 6 6 7 7 7 8 8 8 8 7 6 6 6 5 5 5 5 4 4 4 3 3 3 3
6 5 5 6 6 6 7 7 8 8 9 9 10 9 6 6 6 6 7 7 7 8 7 7 6 6 5 5 4 4 3 3 3 3 2 2 2 2
3 3 3 4 4 4 5 5 5 6 7 9 9 7 5 5 5 5 6 7 7 7 6 5 6 5 4 4 3 2 2 2 2 1 1 1 1 1
2 2 2 2 2 2 3 3 3 3 3 4 7 5 5 5 4 5 5 5 5 6 6 5 4 4 3 2 1 1 0 0 0 -0 -0 -0 -1 -1
-0 0 0 1 1 2 2 3 3 3 3 3 4 4 4 4 4 3 3 3 3 4 3 3 3 3 2 1 1 0 -0 -1 -1 -2 -2 -2 -3 -3
-0 -0 -0 0 1 1 1 1 2 2 3 3 4 3 3 3 2 3 2 2 2 1 1 0 1 0 -0 -0 -0 -1 -2 -2 -3 -3 -3 -3 -4 -5
-0 -0 0 -0 0 0 0 1 1 1 3 3 4 2 2 2 2 1 -0 -1 -1 -1 -1 -2 -1 -2 -2 -2 -2 -2 -3 -4 -4 -5 -5 -6 -6 -6
-0 -1 -1 -1 -1 -1 -0 0 1 1 1 3 3 3 2 2 1 0 -0 1 1 -2 -1 -2 -2 -3 -3 -3 -3 -4 -4 -4 -5 -5 -6 -7 -7 -7
-1 -1 -1 -1 0 -0 0 1 1 2 1 1 4 3 2 1 1 1 0 0 -2 -2 -2 -2 -3 -4 -4 -4 -4 -4 -4 -5 -4 -5 -6 -7 -7 -7
-1 -1 -1 -1 -1 0 1 2 2 2 2 2 2 3 2 1 1 -0 -1 -1 -2 -2 -2 -3 -4 -4 -4 -5 -5 -5 -5 -5 -5 -5 -7 -7 -8 -6
-1 -2 -2 -2 -1 -0 0 1 1 1 2 2 3 3 1 1 0 0 -1 -1 -1 -2 -3 -3 -4 -4 -4 -5 -5 -6 -6 -5 -5 -6 -7 -7 -6 -5
-1 -3 -3 -2 -2 -2 -1 -1 -1 -0 0 1 -0 -1 -1 -1 -1 -1 -1 -2 -1 -1 -3 -4 -4 -4 -3 -5 -5 -6 -6 -6 -6 -6 -7 -7 -6 -5
-2 -3 -2 -2 -2 -2 -2 -2 -1 -1 -2 -2 -2 -2 -2 -2 -2 -2 -2 -2 -2 -3 -4 -4 -4 -3 -4 -4 -5 -6 -6 -6 -6 -6 -7 -7 -7 -6
-3 -3 -2 -1 -1 -2 -1 -1 -2 -2 -1 -1 -1 -2 -2 -3 -2 -3 -3 -2 -3 -4 -4 -4 -3 -4 -4 -4 -4 -5 -6 -6 -6 -6 -6 -7 -7 -7
-2 -2 -2 -2 -2 -3 -2 -2 -2 -2 -2 -2 -2 -3 -3 -3 -3 -3 -3 -4 -4 -4 -4 -4 -4 -4 -4 -3 -4 -5 -5 -5 -6 -5 -5 -6 -6 -7
-1 -1 -2 -2 -2 -2 -2 -3 -2 -2 -2 -2 -2 -2 -3 -3 -3 -3 -3 -4 -4 -4 -4 -4 -4 -3 -3 -4 -4 -4 -5 -4 -5 -5 -5 -5 -6 -6
-1 -1 -2 -2 -2 -2 -2 -2 -3 -2 -2 -2 -2 -2 -2 -3 -3 -3 -3 -3 -3 -3 -4 -4 -4 -5 -4 -4 -3 -4 -4 -4 -5 -5 -5 -5 -5 -6
-1 -2 -2 -2 -2 -2 -3 -3 -3 -3 -2 -2 -2 -2 -2 -3 -3 -3 -3 -3 -3 -3 -4 -4 -3 -2 -1 -2 -5 -4 -4 -4 -5 -6 -5 -4 -4 -6
-1 -2 -2 -2 -2 -2 -3 -3 -3 -3 -3 -3 -3 -3 -3 -3 -3 -3 -3 -3 -3 -3 -3 -2 -2 -1 -0 -2 -4 -5 -4 -5 -5 -5 -4 -5 -6 -6
-2 -2 -2 -2 -2 -3 -4 -4 -3 -3 -3 -3 -3 -3 -3 -3 -3 -3 -3 -3 -4 -3 -3 -3 -4 -3 -4 -4 -5 -5 -6 -5 -4 -4 -4 -6 -6 -7
-3 -2 -2 -3 -2 -3 -3 -3 -3 -4 -4 -4 -4 -3 -3 -3 -3 -4 -4 -3 -3 -3 -4 -5 -5 -4 -3 -2 -3 -5 -6 -6 -6 -5 -6 -5 -5 -6
-4 -3 -4 -3 -3 -3 -3 -3 -3 -3 -3 -4 -4 -4 -4 -4 -4 -4 -4 -3 -3 -4 -4 -4 -3 -3 -3 -3 -4 -5 -6 -7 -7 -8 -8 -8 -8 -8

GFSNE_925_temp_216.txt.gz
Temp
6 6 6 6 6 7 7 7 7 7 7 8 9 9 10 10 11 11 11 11 11 11 10 10 10 10 10 10 9 9 9 8 8 8 8 8 7 7
5 4 4 4 4 4 4 5 5 6 6 7 7 7 8 9 9 10 10 11 10 10 9 9 9 9 10 9 9 8 8 8 8 8 7 7 7 7
3 3 3 3 3 3 3 3 4 4 4 5 5 5 6 7 7 8 9 10 10 9 9 9 9 9 9 9 8 8 8 7 7 7 7 7 6 5
2 2 2 2 2 2 2 2 3 3 3 3 4 4 4 5 5 6 7 8 8 8 8 8 8 8 8 9 8 7 7 6 6 6 5 5 5 4
1 1 1 1 1 1 1 1 1 2 2 2 3 3 4 4 4 4 5 6 7 8 7 7 7 7 8 8 7 7 7 6 5 5 4 4 3 3
-1 -0 -0 0 1 1 1 1 1 1 1 2 2 3 3 3 3 3 4 5 6 6 6 7 7 7 8 7 6 6 6 5 4 4 4 3 3 2
-1 -1 -0 0 1 0 0 -0 0 0 0 1 1 2 2 2 3 3 4 5 4 6 6 6 6 5 5 5 6 5 4 4 3 3 3 2 2 1
-1 -1 -1 -0 -0 -1 -1 -1 -1 -1 -0 -0 0 1 1 2 2 3 3 3 1 3 4 3 4 4 5 5 5 4 4 3 3 3 2 2 0 -0
-1 -1 -1 -1 -1 -2 -2 -1 -1 -1 -1 -1 -0 0 1 2 2 3 3 3 1 2 4 -0 1 2 2 1 4 3 2 2 2 1 1 1 -0 -0
-1 -1 -1 -1 -2 -2 -2 -1 -2 -1 -1 -0 -1 -1 0 2 2 3 3 1 1 1 1 -2 -2 -2 -1 -0 3 2 1 1 0 0 0 -1 -1 -2
-1 -1 -1 -2 -2 -2 -2 -2 -2 -1 1 1 1 -0 0 1 2 2 -0 -0 -1 -2 -1 -2 -3 -3 -3 -2 -1 -0 -0 -1 -1 -1 -1 -2 -3 -4
-1 -2 -2 -2 -2 -2 -2 -2 -2 -1 -0 0 -0 -0 1 2 3 2 1 -0 -1 -2 -2 -2 -3 -2 -3 -4 -3 -3 -3 -2 -2 -2 -2 -3 -4 -5
-2 -1 -2 -2 -2 -2 -2 -2 -2 -1 -0 -0 0 0 1 1 1 1 0 0 -0 -2 -2 -2 -3 -3 -3 -4 -4 -4 -4 -5 -4 -4 -5 -6 -7 -5
-2 -1 -2 -2 -2 -2 -2 -1 -1 -1 -1 -1 -1 -2 -1 -1 -1 -0 -0 -1 -1 -1 -3 -3 -3 -3 -3 -4 -4 -4 -4 -5 -5 -6 -6 -7 -7 -7
-1 -1 -1 -1 -1 -2 -2 -1 -2 -2 -2 -2 -3 -3 -2 -2 -1 -1 -1 -1 -2 -3 -3 -2 -3 -4 -4 -3 -4 -4 -5 -6 -6 -6 -7 -7 -7 -6
-1 -1 -1 -1 -1 -1 -2 -2 -2 -2 -2 -2 -2 -2 -2 -2 -3 -2 -3 -3 -3 -3 -3 -3 -3 -4 -4 -4 -4 -5 -5 -5 -6 -6 -7 -7 -7 -6
-1 -1 -1 -1 -1 -2 -2 -2 -2 -2 -2 -2 -2 -2 -2 -3 -3 -3 -3 -3 -3 -4 -4 -4 -4 -4 -4 -4 -5 -5 -5 -6 -6 -7 -7 -7 -7 -6
-1 -1 -2 -2 -2 -2 -2 -2 -2 -2 -2 -2 -2 -2 -3 -3 -3 -3 -3 -3 -3 -4 -3 -3 -4 -4 -4 -4 -5 -5 -5 -5 -6 -6 -7 -7 -7 -6
-0 -1 -2 -2 -2 -2 -2 -2 -2 -2 -2 -3 -3 -3 -2 -3 -3 -3 -3 -3 -3 -3 -3 -3 -4 -3 -3 -4 -5 -5 -5 -5 -5 -6 -6 -6 -6 -6
-2 -2 -2 -2 -3 -3 -3 -2 -2 -2 -3 -2 -2 -3 -3 -3 -3 -3 -3 -3 -3 -3 -3 -3 -3 -3 -3 -4 -4 -4 -4 -5 -5 -5 -5 -5 -5 -6
-2 -2 -2 -2 -2 -3 -3 -3 -3 -3 -3 -3 -2 -2 -2 -2 -3 -3 -3 -3 -3 -3 -3 -3 -3 -3 -4 -4 -4 -5 -5 -5 -5 -5 -5 -5 -7 -7
-3 -3 -3 -3 -3 -3 -3 -3 -3 -3 -3 -3 -3 -3 -3 -3 -3 -3 -3 -3 -4 -4 -4 -4 -3 -4 -4 -4 -5 -6 -6 -5 -5 -5 -5 -5 -6 -7
-4 -4 -3 -3 -3 -3 -3 -3 -3 -3 -3 -3 -3 -3 -3 -3 -3 -3 -4 -4 -4 -4 -4 -4 -3 -4 -4 -5 -5 -6 -7 -7 -6 -6 -7 -6 -6 -5

GFSNE_925_temp_219.txt.gz
Temp
5 5 5 5 4 4 4 4 4 4 5 6 6 6 7 7 7 8 7 8 9 10 10 11 10 10 10 10 10 10 10 9 9 8 8 9 9 8
4 3 3 3 3 3 3 3 3 3 3 4 4 4 5 5 5 6 6 7 8 9 9 10 10 9 9 9 9 9 9 9 9 9 8 8 8 7
2 2 2 2 2 2 1 2 2 2 2 3 3 3 3 4 4 5 5 6 6 7 8 9 9 9 9 9 9 9 9 8 8 8 8 8 7 7
1 1 1 0 0 1 1 1 1 1 1 2 2 2 2 3 3 4 4 5 5 5 7 8 8 8 8 9 9 9 9 8 8 7 8 7 7 6
0 -0 -0 -0 0 0 1 1 1 1 1 1 1 1 1 2 2 3 4 4 4 4 5 7 7 7 7 7 9 8 8 8 7 7 7 6 6 5
-1 -1 -1 -0 -0 0 0 0 -0 -0 -0 0 1 1 1 1 2 2 2 3 3 4 5 6 7 6 7 7 8 8 7 7 7 6 6 6 5 4
-1 -1 -1 -0 -0 -0 -1 -1 -1 -1 -1 -1 -0 0 0 1 1 2 2 2 3 3 5 5 6 6 7 7 7 7 7 6 6 5 5 4 4 3
-1 -1 -1 -1 -0 -0 -1 -1 -2 -2 -1 -1 -1 -1 -0 0 1 1 2 2 2 3 4 4 5 5 6 6 5 6 6 6 5 5 4 4 3 3
-1 -1 -1 -1 -1 -1 -1 -2 -2 -1 -1 -1 -1 -1 -1 -0 0 1 2 2 1 1 2 -1 1 3 3 3 3 5 5 4 4 3 3 3 2 2
-1 -1 -1 -2 -2 -2 -2 -2 -1 -1 -1 -1 -1 -1 -1 -1 -0 1 2 1 -0 0 1 -2 -1 -1 1 1 5 4 4 4 3 3 2 2 1 1
-1 -1 -2 -2 -2 -2 -2 -2 -2 -1 -0 -0 -0 0 -0 -1 0 1 1 0 -1 -2 -2 -2 -2 -2 -1 -1 -0 2 2 2 2 1 0 -0 -1 -1
-1 -1 -2 -2 -2 -2 -2 -2 -2 -2 -1 0 0 0 -0 0 1 2 2 -0 -2 -2 -2 -2 -2 -1 -3 -3 -3 0 -0 0 -0 -0 -1 -1 -1 -2
-1 -1 -1 -1 -2 -2 -2 -2 -2 -1 -1 0 -1 -1 0 0 1 1 1 1 -0 -2 -2 -1 -3 -3 -3 -4 -4 -3 -2 -3 -3 -4 -3 -2 -2 -2
-1 -1 -1 -1 -1 -2 -2 -3 -2 -1 -1 -1 -1 -2 -1 -1 -0 -0 -0 -0 -0 -0 -2 -2 -3 -3 -3 -4 -4 -5 -5 -4 -4 -5 -5 -5 -4 -5
-1 -1 -1 -1 -1 -2 -2 -3 -2 -2 -2 -2 -3 -3 -2 -2 -1 -1 -1 -1 -1 -2 -2 -2 -2 -3 -3 -3 -4 -5 -5 -6 -5 -6 -6 -7 -6 -6
-1 -1 -1 -1 -1 -2 -2 -3 -2 -3 -2 -2 -3 -3 -3 -2 -3 -3 -3 -3 -4 -3 -3 -2 -2 -3 -4 -4 -4 -5 -6 -6 -7 -7 -7 -7 -7 -6
-1 -1 -1 -1 -1 -1 -2 -2 -2 -3 -2 -3 -3 -3 -3 -3 -3 -3 -3 -3 -4 -4 -4 -4 -4 -4 -4 -4 -5 -6 -6 -6 -7 -7 -7 -7 -6 -6
-1 -2 -2 -2 -2 -2 -2 -2 -2 -3 -3 -3 -3 -3 -3 -3 -3 -3 -3 -4 -4 -4 -4 -4 -4 -4 -4 -5 -5 -6 -6 -7 -7 -7 -7 -7 -6 -6
-1 -2 -3 -3 -2 -3 -3 -3 -3 -3 -3 -3 -3 -3 -3 -3 -3 -3 -3 -3 -3 -3 -4 -4 -4 -4 -4 -4 -5 -5 -6 -6 -7 -7 -7 -7 -7 -7
-2 -2 -3 -3 -3 -3 -3 -3 -2 -3 -3 -3 -3 -3 -3 -3 -3 -3 -3 -3 -3 -4 -4 -4 -4 -4 -4 -4 -5 -5 -5 -6 -6 -6 -6 -6 -6 -7
-3 -3 -3 -3 -3 -4 -4 -3 -3 -3 -3 -3 -3 -3 -3 -3 -3 -3 -3 -3 -3 -3 -3 -3 -4 -4 -4 -4 -5 -5 -5 -5 -5 -6 -6 -6 -7 -8
-3 -3 -3 -3 -3 -3 -3 -3 -4 -4 -3 -3 -3 -3 -3 -3 -3 -4 -3 -4 -4 -3 -4 -4 -4 -4 -4 -5 -6 -6 -6 -5 -5 -5 -5 -5 -6 -8
-3 -3 -3 -3 -3 -4 -3 -3 -3 -4 -3 -4 -4 -4 -3 -4 -3 -3 -4 -4 -4 -4 -4 -4 -4 -4 -5 -5 -6 -7 -7 -7 -6 -6 -6 -6 -6 -5